Location: Goudex
(43.3760°N, 0.9543°E)
Time: 09:01:38
(UTC+00:00)

Meteor 2-3 Rocket - Pass Details

Date: 20 November 2019
Orbit: 843 x 884 km, 81.2° (Epoch: 07 December)

Event Time Altitude Azimuth Distance (km) Brightness Sun altitude
Rises 06:19:41 0° 210° (SSW) 3,452 6.8 -6.8°
Reaches altitude 10° 06:22:15 10° 218° (SW) 2,523 6.0 -6.3°
Maximum altitude 06:27:37 40° 287° (WNW) 1,277 4.2 -5.4°
Drops below altitude 10° 06:33:05 10° 356° (N) 2,554 6.0 -4.5°
Sets 06:35:42 0° 4° (N) 3,498 6.7 -4.1°
